Location: La Comballaz
(46.3780°N, 7.0817°E)
Time: 03:32:51
(UTC+00:00)

CUTE 1.7 + AOD 2 - Visible Passes

Search period start: 27 February 2024 00:00
Search period end: 08 March 2024 00:00
Orbit: 574 x 589 km, 97.7° (Epoch: 26 February)

Date Brightness Start Highest point End Pass type
(mag) Time Alt. Az. Time Alt. Az. Time Alt. Az.
27 Feb ? 03:14:38 10° NNE 03:15:24 15° NNE 03:15:24 15° NNE visible
28 Feb ? 03:20:11 10° N 03:21:10 17° N 03:21:10 17° N visible
29 Feb ? 03:25:44 10° N 03:26:54 18° N 03:26:54 18° N visible
01 Mar ? 03:31:16 10° N 03:32:38 20° N 03:32:38 20° N visible
02 Mar ? 03:36:49 10° N 03:38:20 21° N 03:38:20 21° N visible
03 Mar ? 03:42:21 10° N 03:44:02 22° N 03:44:02 22° N visible
04 Mar ? 02:13:05 10° NE 02:13:21 11° NE 02:13:21 11° NE visible
04 Mar ? 03:47:53 10° N 03:49:43 23° NNW 03:49:43 23° NNW visible
05 Mar ? 02:18:23 10° NE 02:19:00 13° NE 02:19:00 13° NE visible
05 Mar ? 03:53:24 10° N 03:55:23 23° NNW 03:55:23 23° NNW visible
06 Mar ? 02:23:41 10° NE 02:24:40 15° NE 02:24:40 15° NE visible
06 Mar ? 03:58:56 10° N 04:01:02 23° NNW 04:01:02 23° NNW visible
07 Mar ? 02:29:00 10° NNE 02:30:19 18° NE 02:30:19 18° NE visible
07 Mar ? 04:04:27 10° N 04:06:41 23° NW 04:06:41 23° NW visible
